Location: Unspecified
(0.0000°N, 0.0000°E)
Time: 18:38:30
(UTC+00:00)

Transit 2A - Visible Passes

Search period start: 27 June 2016 00:00
Search period end: 07 July 2016 00:00
Orbit: 592 x 968 km, 66.7° (Epoch: 26 June)

Date Brightness Start Highest point End Pass type
(mag) Time Alt. Az. Time Alt. Az. Time Alt. Az.
04 Jul 8.1 19:29:41 12° NE 19:29:41 12° NE 19:30:06 10° NE visible
04 Jul 8.6 21:09:51 15° NW 21:09:51 15° NW 21:11:52 10° NNW visible
05 Jul 7.2 18:48:46 10° SSE 18:51:49 17° ESE 18:55:00 10° ENE visible
05 Jul 7.8 20:30:31 10° SW 20:34:39 27° WNW 20:39:08 10° N visible
06 Jul 6.9 19:56:01 10° SW 20:00:40 46° WNW 20:05:48 10° N visible
